| time (UTC) | temp F | wind direction | speed MPH | gust MPH | rain 1hr in | rain 24hr in | rain mn in | humidity % | barometer mb |
| 20260508090104 | 58 | 263 | 7.0 | 13.0 | 0.01 | 0.16 | 0.02 | 89 | 1012.4 |
| 20260508084548 | 57 | 327 | 5.0 | 10.0 | 0.00 | 0.15 | 0.01 | 88 | 1012.2 |
| 20260508083045 | 57 | 321 | 0.0 | 8.0 | 0.00 | 0.15 | 0.01 | 89 | 1012.0 |
| 20260508081549 | 57 | 245 | 0.0 | 5.0 | 0.00 | 0.15 | 0.01 | 89 | 1012.0 |
| 20260508080043 | 57 | 222 | 3.0 | 5.0 | 0.00 | 0.15 | 0.01 | 89 | 1011.9 |
| 20260508074537 | 57 | 306 | 3.0 | 6.0 | 0.00 | 0.15 | 0.01 | 90 | 1011.5 |
| 20260508073043 | 57 | 355 | 3.0 | 5.0 | 0.00 | 0.15 | 0.01 | 89 | 1011.3 |
| 20260508071542 | 58 | 360 | 2.0 | 5.0 | 0.00 | 0.15 | 0.01 | 89 | 1011.2 |
| 20260508070046 | 58 | 278 | 4.0 | 7.0 | 0.00 | 0.15 | 0.01 | 89 | 1011.2 |
| 20260508064534 | 57 | 317 | 0.0 | 5.0 | 0.00 | 0.15 | 0.01 | 91 | 1011.0 |
| 20260508063024 | 56 | 290 | 7.0 | 9.0 | 0.00 | 0.15 | 0.01 | 91 | 1011.2 |
| 20260508060022 | 55 | 279 | 2.0 | 5.0 | 0.00 | 0.15 | 0.01 | 92 | 1010.7 |
| 20260508054512 | 55 | 290 | 2.0 | 7.0 | 0.00 | 0.15 | 0.01 | 93 | 1010.4 |
| 20260508053009 | 55 | 306 | 3.0 | 7.0 | 0.00 | 0.15 | 0.01 | 93 | 1010.4 |
| 20260508051507 | 55 | 284 | 5.0 | 9.0 | 0.00 | 0.15 | 0.01 | 94 | 1010.5 |
| 20260508050035 | 55 | 294 | 2.0 | 8.0 | 0.00 | 0.15 | 0.01 | 94 | 1010.3 |
| 20260508044535 | 54 | 304 | 3.0 | 10.0 | 0.00 | 0.15 | 0.01 | 94 | 1010.3 |
| 20260508043031 | 55 | 285 | 5.0 | 10.0 | 0.00 | 0.15 | 0.01 | 94 | 1010.0 |
| 20260508041531 | 55 | 355 | 4.0 | 11.0 | 0.00 | 0.15 | 0.01 | 95 | 1010.1 |
| 20260508040030 | 54 | 281 | 3.0 | 9.0 | 0.00 | 0.15 | 0.01 | 95 | 1010.0 |
| 20260508034526 | 54 | 161 | 0.0 | 2.0 | 0.00 | 0.15 | 0.01 | 94 | 1009.7 |
| 20260508033021 | 53 | 161 | 0.0 | 2.0 | 0.01 | 0.15 | 0.01 | 95 | 1009.8 |
| 20260508031519 | 53 | 161 | 0.0 | 2.0 | 0.01 | 0.15 | 0.01 | 94 | 1010.0 |
| 20260508030025 | 53 | 161 | 0.0 | 2.0 | 0.01 | 0.15 | 0.01 | 94 | 1010.1 |
| 20260508024522 | 53 | 161 | 1.0 | 2.0 | 0.01 | 0.15 | 0.01 | 94 | 1010.3 |
| 20260508023018 | 53 | 161 | 0.0 | 2.0 | 0.00 | 0.14 | 0.00 | 94 | 1010.3 |
| 20260508021515 | 53 | 161 | 1.0 | 3.0 | 0.00 | 0.14 | 0.00 | 94 | 1010.4 |
| 20260508020010 | 53 | 161 | 0.0 | 2.0 | 0.00 | 0.14 | 0.14 | 94 | 1010.4 |
| 20260508014506 | 53 | 161 | 0.0 | 1.0 | 0.00 | 0.14 | 0.14 | 94 | 1010.5 |
| 20260508013034 | 54 | 161 | 0.0 | 1.0 | 0.00 | 0.14 | 0.14 | 94 | 1010.5 |
| 20260508011541 | 53 | 161 | 1.0 | 2.0 | 0.00 | 0.14 | 0.14 | 94 | 1010.7 |
| 20260508010002 | 53 | 161 | 0.0 | 1.0 | 0.00 | 0.14 | 0.14 | 94 | 1010.7 |
| 20260508004600 | 53 | 161 | 3.0 | 4.0 | 0.00 | 0.14 | 0.14 | 93 | 1010.9 |
| 20260508003059 | 54 | 161 | 2.0 | 5.0 | 0.00 | 0.14 | 0.14 | 94 | 1011.2 |
| 20260508001559 | 54 | 161 | 1.0 | 3.0 | 0.00 | 0.14 | 0.14 | 94 | 1011.3 |
| 20260508000056 | 54 | 161 | 3.0 | 4.0 | 0.00 | 0.14 | 0.14 | 93 | 1011.4 |
| 20260507234551 | 54 | 56 | 0.0 | 2.0 | 0.00 | 0.14 | 0.14 | 93 | 1011.5 |
| 20260507233049 | 55 | 56 | 2.0 | 3.0 | 0.00 | 0.14 | 0.14 | 92 | 1011.6 |
| 20260507231546 | 55 | 243 | 0.0 | 2.0 | 0.00 | 0.14 | 0.14 | 92 | 1011.8 |
| 20260507230043 | 56 | 243 | 0.0 | 2.0 | 0.00 | 0.14 | 0.14 | 92 | 1011.9 |
| 20260507224543 | 56 | 243 | 1.0 | 3.0 | 0.00 | 0.14 | 0.14 | 92 | 1011.9 |
| 20260507223042 | 56 | 241 | 0.0 | 2.0 | 0.00 | 0.14 | 0.14 | 92 | 1011.9 |
| 20260507221537 | 56 | 238 | 1.0 | 3.0 | 0.00 | 0.14 | 0.14 | 92 | 1011.9 |
| 20260507220034 | 57 | 238 | 1.0 | 2.0 | 0.00 | 0.14 | 0.14 | 92 | 1011.6 |
| 20260507214538 | 57 | 238 | 1.0 | 3.0 | 0.00 | 0.14 | 0.14 | 91 | 1011.4 |
| 20260507213043 | 57 | 113 | 1.0 | 2.0 | 0.00 | 0.14 | 0.14 | 91 | 1011.6 |
| 20260507211543 | 57 | 113 | 0.0 | 0.0 | 0.00 | 0.14 | 0.14 | 91 | 1011.4 |
| 20260507210032 | 57 | 113 | 0.0 | 1.0 | 0.00 | 0.14 | 0.14 | 90 | 1011.4 |
| 20260507204529 | 57 | 113 | 1.0 | 3.0 | 0.00 | 0.14 | 0.14 | 90 | 1011.4 |
| 20260507203028 | 58 | 104 | 1.0 | 6.0 | 0.00 | 0.14 | 0.14 | 90 | 1011.3 |
| 20260507201535 | 58 | 130 | 3.0 | 7.0 | 0.00 | 0.14 | 0.14 | 90 | 1011.3 |
| 20260507200032 | 58 | 139 | 3.0 | 9.0 | 0.00 | 0.14 | 0.14 | 90 | 1011.3 |
| 20260507194522 | 58 | 118 | 3.0 | 8.0 | 0.00 | 0.14 | 0.14 | 90 | 1010.8 |
| 20260507193023 | 58 | 154 | 3.0 | 8.0 | 0.00 | 0.14 | 0.14 | 90 | 1010.6 |
| 20260507191522 | 58 | 115 | 5.0 | 8.0 | 0.00 | 0.14 | 0.14 | 90 | 1010.3 |
| 20260507190018 | 59 | 112 | 4.0 | 9.0 | 0.00 | 0.14 | 0.14 | 90 | 1010.1 |
| 20260507184514 | 59 | 103 | 3.0 | 8.0 | 0.02 | 0.14 | 0.14 | 91 | 1009.9 |
| 20260507183015 | 59 | 138 | 4.0 | 8.0 | 0.05 | 0.14 | 0.14 | 91 | 1009.6 |
| 20260507181511 | 59 | 114 | 3.0 | 6.0 | 0.11 | 0.14 | 0.14 | 91 | 1009.5 |
| 20260507180023 | 59 | 67 | 4.0 | 8.0 | 0.11 | 0.14 | 0.14 | 91 | 1009.5 |
| 20260507174516 | 59 | 49 | 1.0 | 4.0 | 0.09 | 0.13 | 0.13 | 90 | 1009.7 |
| 20260507173016 | 59 | 74 | 1.0 | 8.0 | 0.06 | 0.09 | 0.09 | 89 | 1009.8 |
| 20260507171538 | 60 | 71 | 3.0 | 8.0 | 0.01 | 0.04 | 0.04 | 87 | 1009.6 |
| 20260507170048 | 60 | 144 | 3.0 | 9.0 | 0.00 | 0.03 | 0.03 | 85 | 1009.5 |
| 20260507164534 | 62 | 185 | 9.0 | 14.0 | 0.00 | 0.03 | 0.03 | 83 | 1009.3 |
| 20260507163035 | 65 | 309 | 4.0 | 10.0 | 0.00 | 0.03 | 0.03 | 81 | 1009.1 |
| 20260507161532 | 64 | 326 | 4.0 | 12.0 | 0.00 | 0.03 | 0.03 | 82 | 1008.7 |
| 20260507160032 | 64 | 284 | 8.0 | 10.0 | 0.00 | 0.03 | 0.03 | 85 | 1008.5 |
| 20260507154529 | 64 | 288 | 3.0 | 8.0 | 0.00 | 0.03 | 0.03 | 87 | 1008.6 |
| 20260507153029 | 64 | 294 | 5.0 | 7.0 | 0.00 | 0.03 | 0.03 | 86 | 1008.8 |
| 20260507151528 | 64 | 294 | 3.0 | 5.0 | 0.00 | 0.03 | 0.03 | 87 | 1008.8 |
| 20260507150028 | 63 | 239 | 1.0 | 3.0 | 0.01 | 0.03 | 0.03 | 86 | 1008.8 |
| 20260507144525 | 63 | 178 | 1.0 | 4.0 | 0.02 | 0.03 | 0.03 | 86 | 1008.9 |
| 20260507143025 | 62 | 207 | 2.0 | 7.0 | 0.03 | 0.03 | 0.03 | 87 | 1008.5 |
| 20260507141526 | 62 | 227 | 0.0 | 5.0 | 0.03 | 0.03 | 0.03 | 87 | 1008.4 |
| 20260507140026 | 62 | 209 | 4.0 | 11.0 | 0.02 | 0.02 | 0.02 | 87 | 1008.6 |
| 20260507134520 | 62 | 205 | 6.0 | 15.0 | 0.01 | 0.01 | 0.01 | 85 | 1008.9 |
| 20260507133020 | 65 | 159 | 8.0 | 11.0 | 0.00 | 0.00 | 0.00 | 79 | 1009.1 |
| 20260507131518 | 65 | 117 | 7.0 | 14.0 | 0.00 | 0.00 | 0.00 | 77 | 1008.9 |
| 20260507130017 | 67 | 134 | 9.0 | 14.0 | 0.00 | 0.00 | 0.00 | 72 | 1009.2 |
| 20260507124555 | 67 | 129 | 9.0 | 16.0 | 0.00 | 0.00 | 0.00 | 70 | 1009.1 |
| 20260507123047 | 68 | 115 | 9.0 | 17.0 | 0.00 | 0.00 | 0.00 | 71 | 1009.1 |
| 20260507121549 | 68 | 101 | 11.0 | 16.0 | 0.00 | 0.00 | 0.00 | 69 | 1009.3 |
| 20260507120043 | 68 | 124 | 9.0 | 16.0 | 0.00 | 0.00 | 0.00 | 69 | 1009.6 |
| 20260507114541 | 69 | 110 | 11.0 | 16.0 | 0.00 | 0.00 | 0.00 | 69 | 1009.6 |
| 20260507113045 | 67 | 76 | 10.0 | 16.0 | 0.00 | 0.00 | 0.00 | 72 | 1009.6 |
| 20260507111516 | 67 | 104 | 10.0 | 16.0 | 0.00 | 0.00 | 0.00 | 72 | 1009.8 |
| 20260507110008 | 68 | 98 | 9.0 | 16.0 | 0.00 | 0.00 | 0.00 | 72 | 1009.7 |
| 20260507104606 | 68 | 95 | 13.0 | 18.0 | 0.00 | 0.00 | 0.00 | 71 | 1009.8 |
| 20260507103046 | 68 | 96 | 10.0 | 17.0 | 0.00 | 0.00 | 0.00 | 72 | 1009.9 |
| 20260507101530 | 67 | 105 | 11.0 | 21.0 | 0.00 | 0.00 | 0.00 | 74 | 1009.9 |
| 20260507100109 | 67 | 95 | 11.0 | 16.0 | 0.00 | 0.00 | 0.00 | 74 | 1009.7 |
| 20260507094559 | 67 | 115 | 8.0 | 18.0 | 0.00 | 0.00 | 0.00 | 74 | 1010.0 |
| 20260507093053 | 67 | 143 | 8.0 | 16.0 | 0.00 | 0.00 | 0.00 | 73 | 1010.1 |
| 20260507091551 | 67 | 95 | 6.0 | 14.0 | 0.00 | 0.00 | 0.00 | 73 | 1010.1 |